Weather History for KIND - February, 2012

Change the Weather History Date:

Tuesday, February 28, 2012

  Actual Average Record
Temperature  
Mean Temperature 43 °F 36 °F  
Max Temperature 56 °F 45 °F 68 °F (1895)
Min Temperature 29 °F 28 °F 2 °F (1993)
Degree Days  
Heating Degree Days 22 29  
Month to date heating degree days 789 922  
Since 1 July heating degree days 3448 4143  
Cooling Degree Days 0 0  
Month to date cooling degree days 0 0  
Year to date cooling degree days 0 0  
Moisture  
Dew Point 27 °F    
Average Humidity 54    
Maximum Humidity 75    
Minimum Humidity 32    
Precipitation  
Precipitation T in 0.09 in 1.17 in (2011)
Month to date precipitation 0.91 2.32  
Year to date precipitation 4.39 4.98  
Snow  
Snow 0.00 in 0.20 in 5.40 in (1984)
Month to date snowfall 2.2 6.5  
Since 1 July snowfall 9.1 23.1  
Snow Depth 0.00 in    
Sea Level Pressure  
Sea Level Pressure 30.28 in    
Wind  
Wind Speed 10 mph (ESE)    
Max Wind Speed 22 mph    
Max Gust Speed 28 mph    
Visibility 10 miles    
Events Rain    
T = Trace of Precipitation, MM = Missing Value Source: NWS Daily Summary

Daily Weather History Graph

Daily Weather History Graph

Search for Another Location

Airport or City:

Trip Planner

Search our weather history database for the weather conditions in past years. The results will help you decide how hot, cold, wet, or windy it might be!

Date:

Astronomy

Feb. 28, 2012 Rise Set
Actual Time 7:20 AM EST 6:35 PM EST
Civil Twilight 6:53 AM EST 7:02 PM EST
Nautical Twilight 6:22 AM EST 7:34 PM EST
Astronomical Twilight 5:51 AM EST 8:05 PM EST
Moon 10:28 AM EST (2/28) 12:26 AM EST (2/28)
Length of Visible Light 12h 09m
Length of Day
11h 15m
Waxing Crescent, 37% of the Moon is Illuminated
Feb 28
Waxing Crescent
Feb 29
First Quarter
Mar 8
Full
Mar 14
Last Quarter
Mar 22
New

Hourly Weather History & Observations

Time (EST) Temp. Windchill Dew Point Humidity Pressure Visibility Wind Dir Wind Speed Gust Speed Precip Events Conditions
12:54 AM 30.9 °F 24.3 °F 21.9 °F 69% 30.47 in 10.0 mi NE 6.9 mph - N/A   Partly Cloudy
1:54 AM 30.0 °F 24.1 °F 21.9 °F 72% 30.48 in 10.0 mi ENE 5.8 mph - N/A   Partly Cloudy
2:54 AM 28.9 °F 23.9 °F 21.9 °F 75% 30.46 in 10.0 mi ENE 4.6 mph - N/A   Clear
3:54 AM 28.9 °F 22.8 °F 21.9 °F 75% 30.44 in 10.0 mi East 5.8 mph - N/A   Partly Cloudy
4:54 AM 30.9 °F 24.3 °F 23.0 °F 72% 30.44 in 10.0 mi East 6.9 mph - N/A   Mostly Cloudy
5:54 AM 30.0 °F 21.1 °F 23.0 °F 75% 30.45 in 7.0 mi East 10.4 mph - N/A   Overcast
6:54 AM 30.0 °F 21.1 °F 23.0 °F 75% 30.44 in 7.0 mi East 10.4 mph - N/A   Mostly Cloudy
7:54 AM 30.9 °F 22.8 °F 23.0 °F 72% 30.45 in 8.0 mi East 9.2 mph - N/A   Mostly Cloudy
8:54 AM 32.0 °F 24.2 °F 24.1 °F 73% 30.46 in 9.0 mi ESE 9.2 mph - N/A   Scattered Clouds
9:54 AM 37.0 °F 29.3 °F 25.0 °F 62% 30.43 in 9.0 mi East 11.5 mph - N/A   Scattered Clouds
10:54 AM 42.1 °F 35.7 °F 26.1 °F 53% 30.40 in 10.0 mi ESE 11.5 mph - N/A   Mostly Cloudy
11:54 AM 45.0 °F 40.1 °F 26.1 °F 48% 30.37 in 10.0 mi SE 9.2 mph 17.3 mph N/A   Scattered Clouds
12:54 PM 48.9 °F - 26.1 °F 41% 30.32 in 10.0 mi ESE 6.9 mph 16.1 mph N/A   Scattered Clouds
1:54 PM 52.0 °F - 27.0 °F 38% 30.28 in 10.0 mi SE 6.9 mph - N/A   Mostly Cloudy
2:54 PM 55.0 °F - 27.0 °F 34% 30.22 in 10.0 mi SE 10.4 mph - N/A   Mostly Cloudy
3:54 PM 55.0 °F - 28.0 °F 35% 30.19 in 10.0 mi SE 8.1 mph - N/A   Overcast
4:54 PM 55.0 °F - 28.0 °F 35% 30.16 in 10.0 mi ESE 8.1 mph - N/A   Overcast
5:54 PM 54.0 °F - 30.0 °F 40% 30.14 in 10.0 mi ESE 6.9 mph - N/A   Overcast
6:54 PM 54.0 °F - 30.0 °F 40% 30.12 in 10.0 mi East 9.2 mph - N/A   Overcast
7:54 PM 54.0 °F - 30.0 °F 40% 30.11 in 10.0 mi East 9.2 mph - N/A   Overcast
8:54 PM 52.0 °F - 35.1 °F 53% 30.07 in 10.0 mi ESE 10.4 mph - 0.00 in   Overcast
9:54 PM 51.1 °F - 34.0 °F 52% 30.04 in 10.0 mi ESE 11.5 mph - N/A   Overcast
10:54 PM 52.0 °F - 32.0 °F 47% 29.95 in 10.0 mi SE 17.3 mph - N/A   Mostly Cloudy
11:54 PM 53.1 °F - 32.0 °F 45% 29.89 in 10.0 mi SE 21.9 mph 27.6 mph 0.00 in Rain Light Rain